Camp Century

KL  EN  DA
ASIAQ
Weather Now GREENLAND SURVEY
Updated [WGT/WGST] Temperature [°C] Wind [m/s] Air pressure [hPa] Relative humidity [%] Precipitation [mm]
Present Wind chill Speed Max
12.05 19:00-18,1-31,09,9 ⇑n/a79877n/a
12.05 18:00-17,4-30,510,7 ⇑n/a79777n/a
12.05 17:00-16,4-29,110,5 ⇑n/a79776n/a
12.05 16:00-16,6-28,89,5 ⇑n/a79775n/a
12.05 15:00-17,2-29,810,0 ⇑n/a79774n/a
12.05 14:00-17,9-30,69,8 ⇑n/a79774n/a
12.05 13:00-17,7-30,39,8 ⇗n/a79774n/a
12.05 12:00-17,6-30,310,0 ⇑n/a79676n/a
12.05 11:00-17,5-29,79,1 ⇗n/a79677n/a
12.05 10:00-16,9-29,29,6 ⇗n/a79678n/a
12.05 09:00-16,8-29,19,8 ⇗n/a79679n/a
12.05 08:00-17,1-29,08,9 ⇗n/a79680n/a
12.05 07:00-18,0-29,67,9 ⇗n/a79680n/a
12.05 06:00-18,4-30,58,4 ⇗n/a79580n/a
12.05 05:00-18,7-31,18,7 ⇑n/a79580n/a
12.05 04:00-18,3-30,48,5 ⇑n/a79581n/a
12.05 03:00-17,8-29,58,0 ⇗n/a79581n/a
12.05 02:00-16,7-28,48,8 ⇗n/a79582n/a
12.05 01:00-15,8-27,69,4 ⇗n/a79683n/a
12.05 00:00-16,0-27,99,5 ⇗n/a79683n/a
11.05 23:00-16,4-27,78,1 ⇗n/a79682n/a
11.05 22:00-17,9-28,76,8 ⇑n/a79779n/a
11.05 21:00-17,6-28,36,6 ⇑n/a79778n/a
11.05 20:00-17,2-27,66,4 ⇑n/a79778n/a
11.05 19:00-16,8-27,57,0 ⇑n/a79777n/a
Position: (77.13,-61.03)

[Back]